Regional Weather Roundup
Issued by NWS

Home | Current Version | Previous Version | Text Only | Print | Product List | Glossary Off
Versions: 1 2 3 4 5 6 7 8 9 10 11 12 13 14 15 16 17 18 19 20 21 22 23 24 25 26 27 28 29 30 31 32 33 34 35 36 37 38 39 40 41 42 43 44 45 46 47 48 49 50

660
ASUS45 KTFX 211410
RWRMT
MONTANA REGIONAL WEATHER ROUNDUP
NATIONAL WEATHER SERVICE GREAT FALLS MT
800 AM MDT SAT APR 21 2018

NOTE: "FAIR" INDICATES FEW OR NO CLOUDS BELOW 12000 FEET WITH NO
SIGNIFICANT WEATHER AND/OR OBSTRUCTIONS TO VISIBILITY.

MTZ001>007-043-211500-
WEST OF THE DIVIDE

CITY           SKY/WX    TMP DP  RH WIND       PRES   REMARKS
KALISPELL      LGT RAIN  41  36  82 VRB3      30.10R
MISSOULA       CLOUDY    37  32  82 W3        30.15R
BUTTE          FAIR      32  23  69 CALM      30.15R
MULLAN PASS    FLURRIES  32  31  96 VRB6      30.11S WCI  26
ANACONDA         N/A     45  23  42 S3        30.12S
DEER LODGE       N/A     36  28  75 CALM      30.15R
HAMILTON         N/A     43  27  52 MISG      30.13R
RONAN            N/A     46  34  61 SE5       30.14R
$$

MTZ008-052>055-211500-
SOUTHWEST MONTANA

CITY           SKY/WX    TMP DP  RH WIND       PRES   REMARKS
BOZEMAN        FAIR      39  30  70 CALM      30.11F
DILLON         FAIR      36  27  69 SW9       30.13S WCI  29
ENNIS          SUNNY     32  25  74 SE6       30.17S WCI  26
W YELLOWSTONE  FAIR      23  21  93 CALM      30.19S
THREE FORKS      N/A     35  31  86 CALM      30.09S
TWIN BRIDGES     N/A     33  24  70 SE5       30.11R
$$

MTZ009-010-012-014-046-048-049-054-211500-
EAST SLOPES AND CENTRAL MONTANA

CITY           SKY/WX    TMP DP  RH WIND       PRES   REMARKS
CUT BANK       FAIR      50  30  46 SW20      29.94S
GREAT FALLS    FAIR      50  28  42 S16       29.98F
HELENA         FAIR      40  30  67 W3        30.10R
AUGUSTA        FAIR      44  26  50 CALM      29.98F
BOWMANS CRNR   FAIR      44  28  53 S21       29.98S
CHOTEAU          N/A     45  28  53 CALM      29.99S
FAIRFIELD      FAIR      46  27  47 S12       29.97S
POWER          FAIR      44  30  59 S7        29.98R
RAYNESFORD     FAIR      53  23  31 S17       29.99F
ULM            FAIR      52  31  44 SW8       30.00S
WHITE SULPHUR    N/A     43  28  56 S20       30.06S
$$

MTZ011-013-016-021-045-047-050-051-211500-
NORTH CENTRAL MONTANA

CITY           SKY/WX    TMP DP  RH WIND       PRES   REMARKS
HAVRE          FAIR      41  36  82 SW6       29.95F
LEWISTOWN      FAIR      44  33  65 E6        30.02F
N BAR RANCH    FAIR      45  36  70 CALM      30.07S
CHINOOK          N/A     43  41  93 E5        29.97S
GEYSER         FAIR      46  29  51 SW6       30.00F
GRASS RANGE    FAIR      46  38  71 NW3       29.98F
STANFORD       FAIR      47  30  51 CALM      30.01F
$$

MTZ017>020-022>027-061-062-211500-
NORTHEAST MONTANA

CITY           SKY/WX    TMP DP  RH WIND       PRES   REMARKS
GLASGOW        FAIR      44  39  82 SE16      30.03S
GLENDIVE       FAIR      43  38  82 S15       30.12F
JORDAN           N/A     43  37  79 E3        30.04F
MALTA          SUNNY     46  39  76 E6        29.98S
SIDNEY         FAIR      44  38  79 S15       30.12F
WOLF POINT     FAIR      43  38  82 E5        30.08F
PLENTYWOOD       N/A     39  39 100 SE12      30.09S WCI  32
POPLAR           N/A     43  37  81 SE7       30.09S
$$

MTZ028>42-056>058-211500-
SOUTHCENTRAL AND SOUTHEAST MONTANA

CITY           SKY/WX    TMP DP  RH WIND       PRES   REMARKS
BAKER          FAIR      41  38  89 S15       30.15S
BILLINGS       FAIR      41  34  76 SW16      30.07S
LIVINGSTON     FAIR      39  32  76 W5        30.09F
MILES CITY     FAIR      43  38  82 SE13      30.09F
BIG TIMBER     SUNNY     45  30  57 W15       30.09F
FORSYTH          N/A     48  39  71 CALM      30.07S
HARLOWTON      FAIR      37  31  80 W14       30.07F WCI  28
LAUREL           N/A     41  36  81 SW9       30.09S
$$

REGIONAL REPORTS...DAKOTAS

CITY           SKY/WX    TMP DP  RH WIND       PRES   REMARKS
WILLISTON      FAIR      43  37  79 S9        30.13F
MINOT          FAIR      45  37  73 S18G24    30.20F
DICKINSON      CLOUDY    41  37  86 S21       30.16S
BEACH          FAIR      43  41  93 S17G24    30.17S
CROSBY         FAIR      41  41 100 S22       30.10F
TIOGA          FAIR      41  41 100 S15       30.15F
WATFORD CITY   FAIR      45  39  81 S17G23    30.14F
BISMARCK       FAIR      45  41  86 E6        30.28S
GRAND FORKS    CLOUDY    36  36 100 S9        30.35S WCI  29
FARGO          CLOUDY    40  35  83 S7        30.39R
BUFFALO SD       N/A     41  36  82 S14       30.11S
RAPID CITY     CLOUDY    39  37  92 SE9       30.23R
$$

REGIONAL REPORTS...WYOMING/IDAHO/WASHINGTON

CITY           SKY/WX    TMP DP  RH WIND       PRES   REMARKS
GILLETTE       PTSUNNY   41  35  79 S13       30.14S
SHERIDAN       FAIR      39  34  82 CALM      30.11S
BUFFALO WY     FAIR      42  36  79 CALM      30.11F
CODY           FAIR      41  30  65 CALM      30.12S
YELLOWSTONE LA   N/A     25  21  85 CALM      30.24S
IDAHO FALLS    FAIR      40  28  62 CALM      30.19R
SALMON         PTSUNNY   36  30  79 CALM      30.20R
BOISE          FAIR      46  33  60 SE7       30.15R
SPOKANE        PTSUNNY   49  33  54 SW18      30.10R
$$

REGIONAL REPORTS...ALBERTA

CITY           SKY/WX    TMP DP  RH WIND       PRES   REMARKS
CALGARY        CLOUDY    39  27  60 SW10      29.76F
CARDSTON         N/A     48  27  43 SW8         N/A
EDMONTON       PTSUNNY   39  25  56 CALM      29.75F
FORT MCMURRAY  SUNNY     41  27  56 E7        29.85F
HIGH LEVEL     CLOUDY    39  27  60 S5        29.82R
LETHBRIDGE     PTSUNNY   46  32  57 W10       29.89R
LLOYDMINSTER   PTSUNNY   39  37  93 E7        29.85F
MEDICINE HAT   CLOUDY    45  34  65 S8        29.86F
MILK RIVER       N/A     46  32  57 SW7         N/A
PEACE RIVER    PTSUNNY   37  27  65 NW7       29.74S
PINCHER CREEK  SUNNY     43  32  65 W18G28    29.90S
WATERTON GATE    N/A     43  30  61 SW17G26     N/A
$$

REGIONAL REPORTS...SASKATCHEWAN

CITY           SKY/WX    TMP DP  RH WIND       PRES   REMARKS
CORONACH         N/A     39  36  87 SE7         N/A
CYPRESS HILLS    N/A     41  30  65 S12         N/A
ESTEVAN        MOSUNNY   43  37  81 S12G17    30.12F
MOOSE JAW        N/A     50  37  62 S18         N/A
PRINCE ALBERT  PTSUNNY   34  32  93 E6        29.96F WCI  29
REGINA         PTSUNNY   39  36  87 SE16G22   30.03F WCI  30
ROCKGLEN         N/A     41  36  81 S10         N/A
SASKATOON      CLOUDY    41  36  81 S7        29.94F
SWIFT CURRENT  PTSUNNY   50  34  53 S10G17    29.92F
VAL MARIE        N/A     46  37  71 CALM        N/A
$$




USA.gov is the U.S. government's official web portal to all federal, state and local government web resources and services.